Time,TemperatureF,DewpointF,PressureIn,WindDirection,WindDirectionDegrees,WindSpeedMPH,WindSpeedGustMPH,Humidity,HourlyPrecipIn,Conditions,Clouds,dailyrainin,SoftwareType,DateUTC
2013-07-05 00:01:00,69.6,66.2,29.71,SE,135,0.0,0.0,89,0.00,,,0.00,WUHU21623XXSP,2013-07-05 04:01:00,
2013-07-05 00:06:00,69.6,66.2,29.71,SE,135,0.0,0.0,89,0.00,,,0.00,WUHU21623XXSP,2013-07-05 04:06:00,
2013-07-05 00:11:00,69.6,66.2,29.71,South,180,0.0,0.0,89,0.00,,,0.00,WUHU21623XXSP,2013-07-05 04:11:00,
2013-07-05 00:16:00,69.6,66.2,29.71,SE,135,0.0,0.0,89,0.00,,,0.00,WUHU21623XXSP,2013-07-05 04:16:00,
2013-07-05 00:21:00,69.6,66.2,29.71,SE,135,0.0,0.0,89,0.00,,,0.00,WUHU21623XXSP,2013-07-05 04:21:00,
2013-07-05 00:26:00,69.6,66.2,29.71,SE,135,0.0,0.0,89,0.00,,,0.00,WUHU21623XXSP,2013-07-05 04:26:00,
2013-07-05 00:31:00,69.6,66.2,29.71,SE,135,0.0,0.0,89,0.00,,,0.00,WUHU21623XXSP,2013-07-05 04:31:00,
2013-07-05 00:36:00,69.6,66.2,29.71,SE,135,0.0,0.0,89,0.00,,,0.00,WUHU21623XXSP,2013-07-05 04:36:00,
2013-07-05 00:41:00,69.4,66.0,29.72,SE,135,0.0,0.0,89,0.00,,,0.00,WUHU21623XXSP,2013-07-05 04:41:00,
2013-07-05 00:46:00,69.4,66.0,29.72,SE,135,0.0,0.0,89,0.00,,,0.00,WUHU21623XXSP,2013-07-05 04:46:00,
2013-07-05 00:51:00,69.4,66.0,29.71,SE,135,0.0,0.0,89,0.00,,,0.00,WUHU21623XXSP,2013-07-05 04:51:00,
2013-07-05 00:56:00,69.4,66.0,29.71,SE,135,0.0,0.0,89,0.00,,,0.00,WUHU21623XXSP,2013-07-05 04:56:00,
2013-07-05 01:01:00,69.4,66.0,29.71,SE,135,0.0,0.0,89,0.00,,,0.00,WUHU21623XXSP,2013-07-05 05:01:00,
2013-07-05 01:06:00,69.4,66.0,29.71,SE,135,0.0,0.0,89,0.00,,,0.00,WUHU21623XXSP,2013-07-05 05:06:00,
2013-07-05 01:11:00,69.4,66.0,29.71,SE,135,0.0,0.0,89,0.00,,,0.00,WUHU21623XXSP,2013-07-05 05:11:00,
2013-07-05 01:16:00,69.6,66.2,29.71,SSE,157,0.0,0.0,89,0.00,,,0.00,WUHU21623XXSP,2013-07-05 05:16:00,
2013-07-05 01:22:00,69.6,65.9,29.71,SSE,157,0.0,0.0,88,0.00,,,0.00,WUHU21623XXSP,2013-07-05 05:22:00,
2013-07-05 01:27:00,70.0,66.2,29.71,SSE,157,0.0,0.0,88,0.00,,,0.00,WUHU21623XXSP,2013-07-05 05:27:00,
2013-07-05 01:32:00,70.0,66.2,29.71,SSE,157,0.0,0.0,88,0.00,,,0.00,WUHU21623XXSP,2013-07-05 05:32:00,
2013-07-05 01:37:00,70.2,66.4,29.71,SSE,157,0.0,0.0,88,0.00,,,0.00,WUHU21623XXSP,2013-07-05 05:37:00,
2013-07-05 01:42:00,70.2,66.4,29.71,SSE,157,0.0,0.0,88,0.00,,,0.00,WUHU21623XXSP,2013-07-05 05:42:00,
2013-07-05 01:47:00,70.3,66.6,29.71,SSE,157,0.0,0.0,88,0.00,,,0.00,WUHU21623XXSP,2013-07-05 05:47:00,
2013-07-05 01:52:00,70.3,66.6,29.71,SSE,157,0.0,0.0,88,0.00,,,0.00,WUHU21623XXSP,2013-07-05 05:52:00,
2013-07-05 01:57:00,70.3,66.6,29.72,SSE,157,0.0,0.0,88,0.00,,,0.00,WUHU21623XXSP,2013-07-05 05:57:00,
2013-07-05 02:02:00,70.3,66.6,29.72,SSE,157,0.0,0.0,88,0.00,,,0.00,WUHU21623XXSP,2013-07-05 06:02:00,
2013-07-05 02:07:00,70.3,66.6,29.72,SSE,157,0.0,0.0,88,0.00,,,0.00,WUHU21623XXSP,2013-07-05 06:07:00,
2013-07-05 02:12:00,70.3,66.6,29.72,SSE,157,0.0,0.0,88,0.00,,,0.00,WUHU21623XXSP,2013-07-05 06:12:00,
2013-07-05 02:17:00,70.3,66.6,29.72,SSE,157,0.0,0.0,88,0.00,,,0.00,WUHU21623XXSP,2013-07-05 06:17:00,
2013-07-05 02:22:00,70.3,66.3,29.72,SSE,157,0.0,0.0,87,0.00,,,0.00,WUHU21623XXSP,2013-07-05 06:22:00,
2013-07-05 02:27:00,70.3,66.3,29.71,SSE,157,0.0,0.0,87,0.00,,,0.00,WUHU21623XXSP,2013-07-05 06:27:00,
2013-07-05 02:32:00,70.3,66.3,29.72,SSE,157,0.0,0.0,87,0.00,,,0.00,WUHU21623XXSP,2013-07-05 06:32:00,
2013-07-05 02:37:00,70.3,66.3,29.72,SSE,157,0.0,0.0,87,0.00,,,0.00,WUHU21623XXSP,2013-07-05 06:37:00,
2013-07-05 02:42:00,70.3,66.3,29.71,SSE,157,0.0,0.0,87,0.00,,,0.00,WUHU21623XXSP,2013-07-05 06:42:00,
2013-07-05 02:47:00,70.3,66.3,29.71,SSE,157,0.0,0.0,87,0.00,,,0.00,WUHU21623XXSP,2013-07-05 06:47:00,
2013-07-05 02:52:00,70.3,66.3,29.71,SSE,157,0.0,0.0,87,0.00,,,0.00,WUHU21623XXSP,2013-07-05 06:52:00,
2013-07-05 02:57:00,70.3,66.3,29.70,SSE,157,0.0,0.0,87,0.00,,,0.00,WUHU21623XXSP,2013-07-05 06:57:00,
2013-07-05 03:02:00,70.3,66.3,29.70,SSE,157,0.0,0.0,87,0.00,,,0.00,WUHU21623XXSP,2013-07-05 07:02:00,
2013-07-05 03:07:00,70.3,66.3,29.70,SSE,157,0.0,0.0,87,0.00,,,0.00,WUHU21623XXSP,2013-07-05 07:07:00,
2013-07-05 03:12:00,70.3,66.3,29.70,SSE,157,0.0,0.0,87,0.00,,,0.00,WUHU21623XXSP,2013-07-05 07:12:00,
2013-07-05 03:17:00,70.3,65.9,29.70,SSE,157,0.0,0.0,86,0.00,,,0.00,WUHU21623XXSP,2013-07-05 07:17:00,
2013-07-05 03:22:00,70.3,66.3,29.70,SSE,157,0.0,0.0,87,0.00,,,0.00,WUHU21623XXSP,2013-07-05 07:22:00,
2013-07-05 03:27:00,70.5,66.1,29.71,SSE,157,0.0,0.0,86,0.00,,,0.00,WUHU21623XXSP,2013-07-05 07:27:00,
2013-07-05 03:32:00,70.9,66.5,29.70,SSE,157,0.0,0.0,86,0.00,,,0.00,WUHU21623XXSP,2013-07-05 07:32:00,
2013-07-05 03:37:00,70.9,66.1,29.70,SSE,157,0.0,0.0,85,0.00,,,0.00,WUHU21623XXSP,2013-07-05 07:37:00,
2013-07-05 03:42:00,71.2,66.5,29.70,SSE,157,0.0,0.0,85,0.00,,,0.00,WUHU21623XXSP,2013-07-05 07:42:00,
2013-07-05 03:47:00,71.2,66.5,29.70,SSE,157,0.0,0.0,85,0.00,,,0.00,WUHU21623XXSP,2013-07-05 07:47:00,
2013-07-05 03:52:00,71.4,66.7,29.70,SSE,157,0.0,0.0,85,0.00,,,0.00,WUHU21623XXSP,2013-07-05 07:52:00,
2013-07-05 03:57:00,71.4,66.7,29.70,SSE,157,0.0,0.0,85,0.00,,,0.00,WUHU21623XXSP,2013-07-05 07:57:00,
2013-07-05 04:02:00,71.4,66.7,29.70,SSE,157,0.0,0.0,85,0.00,,,0.00,WUHU21623XXSP,2013-07-05 08:02:00,
2013-07-05 04:07:00,71.4,66.7,29.70,SSE,157,0.0,0.0,85,0.00,,,0.00,WUHU21623XXSP,2013-07-05 08:07:00,
2013-07-05 04:12:00,71.4,66.7,29.71,SSE,157,0.0,0.0,85,0.00,,,0.00,WUHU21623XXSP,2013-07-05 08:12:00,
2013-07-05 04:17:00,71.4,66.7,29.70,SSE,157,0.0,0.0,85,0.00,,,0.00,WUHU21623XXSP,2013-07-05 08:17:00,
2013-07-05 04:22:00,71.2,66.5,29.70,SSE,157,0.0,0.0,85,0.00,,,0.00,WUHU21623XXSP,2013-07-05 08:22:00,
2013-07-05 04:27:00,71.2,66.5,29.70,SSE,157,0.0,0.0,85,0.00,,,0.00,WUHU21623XXSP,2013-07-05 08:27:00,
2013-07-05 04:33:00,70.9,66.1,29.71,SSE,157,0.0,0.0,85,0.00,,,0.00,WUHU21623XXSP,2013-07-05 08:33:00,
2013-07-05 04:38:00,70.9,66.1,29.70,SSE,157,0.0,0.0,85,0.00,,,0.00,WUHU21623XXSP,2013-07-05 08:38:00,
2013-07-05 04:43:00,70.9,66.1,29.71,SSE,157,0.0,0.0,85,0.00,,,0.00,WUHU21623XXSP,2013-07-05 08:43:00,
2013-07-05 04:48:00,70.9,66.1,29.71,SSE,157,0.0,0.0,85,0.00,,,0.00,WUHU21623XXSP,2013-07-05 08:48:00,
2013-07-05 04:53:00,70.9,66.1,29.71,SSE,157,0.0,0.0,85,0.00,,,0.00,WUHU21623XXSP,2013-07-05 08:53:00,
2013-07-05 04:58:00,70.9,66.1,29.71,SSE,157,0.0,0.0,85,0.00,,,0.00,WUHU21623XXSP,2013-07-05 08:58:00,
2013-07-05 05:04:00,70.7,65.9,29.72,SSE,157,0.0,0.0,85,0.00,,,0.00,WUHU21623XXSP,2013-07-05 09:04:00,
2013-07-05 05:09:00,70.7,65.9,29.71,SSE,157,0.0,0.0,85,0.00,,,0.00,WUHU21623XXSP,2013-07-05 09:09:00,
2013-07-05 05:14:00,70.5,65.8,29.72,SSE,157,0.0,0.0,85,0.00,,,0.00,WUHU21623XXSP,2013-07-05 09:14:00,
2013-07-05 05:19:00,70.5,65.8,29.71,SSE,157,0.0,0.0,85,0.00,,,0.00,WUHU21623XXSP,2013-07-05 09:19:00,
2013-07-05 05:24:00,70.5,65.8,29.71,SSE,157,0.0,0.0,85,0.00,,,0.00,WUHU21623XXSP,2013-07-05 09:24:00,
2013-07-05 05:29:00,70.5,65.8,29.71,SSE,157,0.0,0.0,85,0.00,,,0.00,WUHU21623XXSP,2013-07-05 09:29:00,
2013-07-05 05:34:00,70.5,65.8,29.71,SSE,157,0.0,0.0,85,0.00,,,0.00,WUHU21623XXSP,2013-07-05 09:34:00,
2013-07-05 05:39:00,70.5,65.8,29.71,SSE,157,0.0,0.0,85,0.00,,,0.00,WUHU21623XXSP,2013-07-05 09:39:00,
2013-07-05 05:45:00,70.5,65.8,29.71,SSE,157,0.0,0.0,85,0.00,,,0.00,WUHU21623XXSP,2013-07-05 09:45:00,
2013-07-05 05:50:00,70.5,65.8,29.72,SSE,157,0.0,0.0,85,0.00,,,0.00,WUHU21623XXSP,2013-07-05 09:50:00,
2013-07-05 05:55:00,70.3,65.6,29.71,SSE,157,0.0,0.0,85,0.00,,,0.00,WUHU21623XXSP,2013-07-05 09:55:00,
2013-07-05 06:00:00,70.3,65.2,29.71,SSE,157,0.0,0.0,84,0.00,,,0.00,WUHU21623XXSP,2013-07-05 10:00:00,
2013-07-05 06:05:00,70.3,65.2,29.71,SSE,157,0.0,0.0,84,0.00,,,0.00,WUHU21623XXSP,2013-07-05 10:05:00,
2013-07-05 06:11:00,70.3,65.2,29.71,SSE,157,0.0,0.0,84,0.00,,,0.00,WUHU21623XXSP,2013-07-05 10:11:00,
2013-07-05 06:16:00,70.3,65.2,29.71,SSE,157,0.0,0.0,84,0.00,,,0.00,WUHU21623XXSP,2013-07-05 10:16:00,
2013-07-05 06:22:00,70.3,64.9,29.72,SSE,157,0.0,0.0,83,0.00,,,0.00,WUHU21623XXSP,2013-07-05 10:22:00,
2013-07-05 06:27:00,70.3,64.9,29.71,SSE,157,0.0,0.0,83,0.00,,,0.00,WUHU21623XXSP,2013-07-05 10:27:00,
2013-07-05 06:32:00,70.3,64.9,29.72,SSE,157,0.0,0.0,83,0.00,,,0.00,WUHU21623XXSP,2013-07-05 10:32:00,
2013-07-05 06:37:00,70.3,64.9,29.72,SSE,157,0.0,0.0,83,0.00,,,0.00,WUHU21623XXSP,2013-07-05 10:37:00,
2013-07-05 06:42:00,70.3,64.9,29.72,SSE,157,0.0,0.0,83,0.00,,,0.00,WUHU21623XXSP,2013-07-05 10:42:00,
2013-07-05 06:47:00,70.3,64.9,29.72,SSE,157,0.0,0.0,83,0.00,,,0.00,WUHU21623XXSP,2013-07-05 10:47:00,
2013-07-05 08:26:00,79.0,76.2,29.73,SSW,202,0.0,0.0,91,0.00,,,0.00,WUHU21623XXSP,2013-07-05 12:26:00,
2013-07-05 08:31:00,79.3,75.5,29.73,SW,225,0.0,4.9,88,0.00,,,0.00,WUHU21623XXSP,2013-07-05 12:31:00,
2013-07-05 08:36:00,78.4,74.3,29.73,SW,225,0.0,4.9,87,0.00,,,0.00,WUHU21623XXSP,2013-07-05 12:36:00,
2013-07-05 08:41:00,78.6,74.8,29.74,SE,135,0.0,4.9,88,0.00,,,0.00,WUHU21623XXSP,2013-07-05 12:41:00,
2013-07-05 08:46:00,79.5,75.3,29.73,SSE,157,0.0,3.6,87,0.00,,,0.00,WUHU21623XXSP,2013-07-05 12:46:00,
2013-07-05 08:51:00,81.7,76.0,29.74,SSE,157,0.0,4.7,83,0.00,,,0.00,WUHU21623XXSP,2013-07-05 12:51:00,
2013-07-05 08:57:00,83.5,76.3,29.74,SE,135,0.0,6.0,79,0.00,,,0.00,WUHU21623XXSP,2013-07-05 12:57:00,
2013-07-05 09:02:00,85.1,77.1,29.74,SSW,202,0.0,6.0,77,0.00,,,0.00,WUHU21623XXSP,2013-07-05 13:02:00,
2013-07-05 09:07:00,86.5,76.9,29.74,East,90,0.0,5.4,73,0.00,,,0.00,WUHU21623XXSP,2013-07-05 13:07:00,
2013-07-05 09:12:00,86.7,76.6,29.75,SSW,202,0.0,5.4,72,0.00,,,0.00,WUHU21623XXSP,2013-07-05 13:12:00,
2013-07-05 09:17:00,87.4,76.9,29.75,SE,135,0.0,4.3,71,0.00,,,0.00,WUHU21623XXSP,2013-07-05 13:17:00,
2013-07-05 09:23:00,88.2,77.2,29.75,SW,225,6.0,6.0,70,0.00,,,0.00,WUHU21623XXSP,2013-07-05 13:23:00,
2013-07-05 09:28:00,87.4,76.5,29.75,SSE,157,0.0,6.0,70,0.00,,,0.00,WUHU21623XXSP,2013-07-05 13:28:00,
2013-07-05 09:33:00,87.6,76.7,29.75,SE,135,0.0,4.5,70,0.00,,,0.00,WUHU21623XXSP,2013-07-05 13:33:00,
2013-07-05 09:38:00,87.6,76.2,29.75,SW,225,0.0,5.6,69,0.00,,,0.00,WUHU21623XXSP,2013-07-05 13:38:00,
2013-07-05 09:43:00,87.6,76.2,29.75,SSW,202,0.0,5.6,69,0.00,,,0.00,WUHU21623XXSP,2013-07-05 13:43:00,
2013-07-05 09:49:00,86.9,76.0,29.75,SE,135,0.0,7.2,70,0.00,,,0.00,WUHU21623XXSP,2013-07-05 13:49:00,
2013-07-05 09:54:00,88.2,77.2,29.75,SSW,202,0.0,7.2,70,0.00,,,0.00,WUHU21623XXSP,2013-07-05 13:54:00,
2013-07-05 09:59:00,87.6,75.7,29.75,SSE,157,3.8,7.8,68,0.00,,,0.00,WUHU21623XXSP,2013-07-05 13:59:00,
2013-07-05 10:05:00,85.6,74.8,29.75,SSW,202,0.0,7.8,70,0.00,,,0.00,WUHU21623XXSP,2013-07-05 14:05:00,
2013-07-05 10:10:00,84.7,75.1,29.75,SE,135,0.0,4.5,73,0.00,,,0.00,WUHU21623XXSP,2013-07-05 14:10:00,
2013-07-05 10:15:00,84.0,74.4,29.75,SSW,202,0.0,7.2,73,0.00,,,0.00,WUHU21623XXSP,2013-07-05 14:15:00,
2013-07-05 10:20:00,83.3,74.5,29.75,SSW,202,2.2,6.3,75,0.00,,,0.00,WUHU21623XXSP,2013-07-05 14:20:00,
2013-07-05 10:25:00,83.5,74.7,29.75,SSW,202,0.0,4.7,75,0.00,,,0.00,WUHU21623XXSP,2013-07-05 14:25:00,
2013-07-05 10:31:00,84.4,75.6,29.75,ESE,112,0.0,6.9,75,0.00,,,0.00,WUHU21623XXSP,2013-07-05 14:31:00,
2013-07-05 10:36:00,84.7,75.5,29.75,SSW,202,0.0,6.9,74,0.00,,,0.00,WUHU21623XXSP,2013-07-05 14:36:00,
2013-07-05 10:41:00,86.9,76.4,29.75,SW,225,5.4,5.8,71,0.00,,,0.00,WUHU21623XXSP,2013-07-05 14:41:00,
2013-07-05 10:46:00,87.4,76.0,29.75,SSW,202,3.1,5.8,69,0.00,,,0.00,WUHU21623XXSP,2013-07-05 14:46:00,
2013-07-05 10:51:00,88.0,76.1,29.75,SSW,202,0.0,4.3,68,0.00,,,0.00,WUHU21623XXSP,2013-07-05 14:51:00,
2013-07-05 10:56:00,88.2,76.7,29.75,SSE,157,0.0,4.3,69,0.00,,,0.00,WUHU21623XXSP,2013-07-05 14:56:00,
2013-07-05 11:01:00,88.9,77.0,29.75,SSE,157,0.0,0.0,68,0.00,,,0.00,WUHU21623XXSP,2013-07-05 15:01:00,
2013-07-05 11:06:00,88.3,76.0,29.75,SW,225,0.0,4.0,67,0.00,,,0.00,WUHU21623XXSP,2013-07-05 15:06:00,
2013-07-05 11:11:00,89.4,77.0,29.75,SE,135,1.6,5.1,67,0.00,,,0.00,WUHU21623XXSP,2013-07-05 15:11:00,
2013-07-05 11:16:00,91.6,77.6,29.74,East,90,0.0,5.1,64,0.00,,,0.00,WUHU21623XXSP,2013-07-05 15:16:00,
2013-07-05 11:22:00,93.2,78.3,29.74,ESE,112,0.0,1.6,62,0.00,,,0.00,WUHU21623XXSP,2013-07-05 15:22:00,
2013-07-05 11:27:00,95.4,78.8,29.74,ESE,112,0.0,0.0,59,0.00,,,0.00,WUHU21623XXSP,2013-07-05 15:27:00,
2013-07-05 11:32:00,96.4,78.7,29.75,ESE,112,0.0,2.0,57,0.00,,,0.00,WUHU21623XXSP,2013-07-05 15:32:00,
2013-07-05 11:37:00,95.5,77.8,29.75,East,90,0.0,2.0,57,0.00,,,0.00,WUHU21623XXSP,2013-07-05 15:37:00,
2013-07-05 11:42:00,93.9,76.4,29.75,South,180,0.0,2.9,57,0.00,,,0.00,WUHU21623XXSP,2013-07-05 15:42:00,
2013-07-05 11:47:00,93.4,75.8,29.75,SSE,157,0.0,5.6,57,0.00,,,0.00,WUHU21623XXSP,2013-07-05 15:47:00,
2013-07-05 11:50:00,93.0,76.1,29.75,South,180,0.0,5.6,58,0.00,,,0.00,WUHU21623XXSP,2013-07-05 15:50:00,
2013-07-05 11:55:00,94.6,77.0,29.75,SE,135,0.0,4.0,57,0.00,,,0.00,WUHU21623XXSP,2013-07-05 15:55:00,
2013-07-05 12:00:00,94.6,76.5,29.75,SSE,157,0.0,4.0,56,0.00,,,0.00,WUHU21623XXSP,2013-07-05 16:00:00,
2013-07-05 12:05:00,95.7,78.0,29.74,SSE,157,0.0,4.0,57,0.00,,,0.00,WUHU21623XXSP,2013-07-05 16:05:00,
2013-07-05 12:10:00,96.6,77.7,29.74,SSE,157,0.0,2.9,55,0.00,,,0.00,WUHU21623XXSP,2013-07-05 16:10:00,
2013-07-05 12:15:00,96.4,77.6,29.74,SSE,157,0.0,2.9,55,0.00,,,0.00,WUHU21623XXSP,2013-07-05 16:15:00,
2013-07-05 12:20:00,96.6,77.7,29.73,SSE,157,0.0,0.0,55,0.00,,,0.00,WUHU21623XXSP,2013-07-05 16:20:00,
2013-07-05 12:25:00,96.6,77.2,29.73,SSE,157,0.0,4.7,54,0.00,,,0.00,WUHU21623XXSP,2013-07-05 16:25:00,
2013-07-05 12:30:00,95.7,76.9,29.73,SSE,157,0.0,5.6,55,0.00,,,0.00,WUHU21623XXSP,2013-07-05 16:30:00,
2013-07-05 12:35:00,97.3,77.3,29.73,SSW,202,0.9,5.6,53,0.00,,,0.00,WUHU21623XXSP,2013-07-05 16:35:00,
2013-07-05 12:40:00,99.1,77.9,29.73,SSW,202,0.0,4.7,51,0.00,,,0.00,WUHU21623XXSP,2013-07-05 16:40:00,
2013-07-05 12:45:00,100.0,78.1,29.73,SE,135,0.0,4.7,50,0.00,,,0.00,WUHU21623XXSP,2013-07-05 16:45:00,
2013-07-05 12:50:00,98.1,76.3,29.73,SSE,157,0.0,2.5,50,0.00,,,0.00,WUHU21623XXSP,2013-07-05 16:50:00,
2013-07-05 12:51:00,98.1,76.3,29.73,SSE,157,0.0,2.5,50,0.00,,,0.00,WUHU21623XXSP,2013-07-05 16:51:00,
2013-07-05 12:56:00,98.8,77.5,29.73,SSE,157,1.3,1.8,51,0.00,,,0.00,WUHU21623XXSP,2013-07-05 16:56:00,
2013-07-05 13:01:00,98.4,76.7,29.72,SSE,157,2.9,4.3,50,0.00,,,0.00,WUHU21623XXSP,2013-07-05 17:01:00,
2013-07-05 13:06:00,96.4,75.4,29.73,SE,135,0.0,5.4,51,0.00,,,0.00,WUHU21623XXSP,2013-07-05 17:06:00,
2013-07-05 13:11:00,94.3,75.0,29.73,SSE,157,0.0,7.8,54,0.00,,,0.00,WUHU21623XXSP,2013-07-05 17:11:00,
2013-07-05 13:16:00,93.2,75.1,29.73,SE,135,0.0,7.8,56,0.00,,,0.00,WUHU21623XXSP,2013-07-05 17:16:00,
2013-07-05 13:21:00,89.4,70.7,29.77,NNW,337,0.0,14.3,61,0.08,,,0.06,WUHU21623XXSP,2013-07-05 17:21:00,
2013-07-05 13:26:00,80.4,69.3,29.74,NNW,337,0.0,14.3,69,0.20,,,0.21,WUHU21623XXSP,2013-07-05 17:26:00,
2013-07-05 13:31:00,77.7,69.9,29.74,SSE,157,0.0,6.9,77,0.20,,,0.21,WUHU21623XXSP,2013-07-05 17:31:00,
2013-07-05 13:36:00,76.1,69.9,29.74,South,180,0.0,4.9,81,0.20,,,0.21,WUHU21623XXSP,2013-07-05 17:36:00,
2013-07-05 13:41:00,75.4,70.3,29.75,South,180,0.0,3.1,84,0.20,,,0.21,WUHU21623XXSP,2013-07-05 17:41:00,
2013-07-05 13:46:00,74.8,70.1,29.75,SSE,157,0.0,7.2,85,0.20,,,0.21,WUHU21623XXSP,2013-07-05 17:46:00,
2013-07-05 13:51:00,75.0,70.6,29.74,SSE,157,0.0,7.2,86,0.20,,,0.21,WUHU21623XXSP,2013-07-05 17:51:00,
2013-07-05 13:56:00,75.0,70.9,29.74,SW,225,0.9,2.9,87,0.20,,,0.21,WUHU21623XXSP,2013-07-05 17:56:00,
2013-07-05 14:01:00,75.9,72.2,29.73,SSW,202,2.0,2.9,88,0.20,,,0.21,WUHU21623XXSP,2013-07-05 18:01:00,
2013-07-05 14:06:00,77.2,73.4,29.73,South,180,0.0,3.1,88,0.20,,,0.21,WUHU21623XXSP,2013-07-05 18:06:00,
2013-07-05 14:11:00,79.5,75.0,29.72,SSW,202,0.0,3.1,86,0.20,,,0.21,WUHU21623XXSP,2013-07-05 18:11:00,
2013-07-05 14:16:00,80.8,75.8,29.72,South,180,0.0,2.0,85,0.20,,,0.21,WUHU21623XXSP,2013-07-05 18:16:00,
2013-07-05 14:21:00,81.3,75.3,29.71,SW,225,1.8,4.0,82,0.02,,,0.21,WUHU21623XXSP,2013-07-05 18:21:00,
2013-07-05 14:22:00,81.3,75.3,29.72,SW,225,1.6,4.0,82,0.02,,,0.21,WUHU21623XXSP,2013-07-05 18:22:00,
2013-07-05 14:27:00,81.1,75.2,29.71,SW,225,0.0,4.0,82,0.00,,,0.21,WUHU21623XXSP,2013-07-05 18:27:00,
2013-07-05 14:32:00,81.1,75.2,29.71,SSE,157,0.0,3.1,82,0.00,,,0.21,WUHU21623XXSP,2013-07-05 18:32:00,
2013-07-05 14:37:00,80.2,74.9,29.71,SSE,157,0.0,3.1,84,0.00,,,0.21,WUHU21623XXSP,2013-07-05 18:37:00,
2013-07-05 14:42:00,79.5,74.3,29.71,South,180,0.0,2.7,84,0.00,,,0.21,WUHU21623XXSP,2013-07-05 18:42:00,
2013-07-05 14:47:00,80.1,75.1,29.71,South,180,0.0,2.7,85,0.00,,,0.21,WUHU21623XXSP,2013-07-05 18:47:00,
2013-07-05 14:52:00,80.8,75.1,29.71,SW,225,3.1,3.6,83,0.00,,,0.21,WUHU21623XXSP,2013-07-05 18:52:00,
2013-07-05 14:57:00,81.0,75.3,29.71,South,180,0.0,3.6,83,0.00,,,0.21,WUHU21623XXSP,2013-07-05 18:57:00,
2013-07-05 15:02:00,81.1,75.2,29.71,SW,225,0.0,3.1,82,0.00,,,0.21,WUHU21623XXSP,2013-07-05 19:02:00,
2013-07-05 15:07:00,81.5,75.9,29.71,SW,225,0.0,2.0,83,0.00,,,0.21,WUHU21623XXSP,2013-07-05 19:07:00,
2013-07-05 15:12:00,82.0,76.1,29.71,SSE,157,0.0,0.0,82,0.00,,,0.21,WUHU21623XXSP,2013-07-05 19:12:00,
2013-07-05 15:17:00,82.0,76.1,29.70,SSE,157,0.0,0.0,82,0.00,,,0.21,WUHU21623XXSP,2013-07-05 19:17:00,
2013-07-05 15:22:00,82.0,76.1,29.70,SSE,157,0.0,0.0,82,0.00,,,0.21,WUHU21623XXSP,2013-07-05 19:22:00,
2013-07-05 15:27:00,81.7,75.4,29.70,SSE,157,0.0,0.0,81,0.00,,,0.21,WUHU21623XXSP,2013-07-05 19:27:00,
2013-07-05 15:32:00,81.5,75.2,29.70,SSE,157,0.0,0.0,81,0.00,,,0.21,WUHU21623XXSP,2013-07-05 19:32:00,
2013-07-05 15:37:00,81.5,75.2,29.71,SSE,157,0.0,0.0,81,0.00,,,0.21,WUHU21623XXSP,2013-07-05 19:37:00,
2013-07-05 15:42:00,81.3,75.5,29.71,SE,135,0.0,3.1,82,0.00,,,0.21,WUHU21623XXSP,2013-07-05 19:42:00,
2013-07-05 15:48:00,82.0,76.1,29.71,SE,135,0.0,3.1,82,0.00,,,0.21,WUHU21623XXSP,2013-07-05 19:48:00,
2013-07-05 15:53:00,83.5,77.4,29.71,SE,135,0.0,0.0,82,0.00,,,0.21,WUHU21623XXSP,2013-07-05 19:53:00,
2013-07-05 15:58:00,86.0,78.4,29.71,SE,135,0.0,2.5,78,0.00,,,0.21,WUHU21623XXSP,2013-07-05 19:58:00,
2013-07-05 16:03:00,88.2,78.8,29.70,SE,135,0.0,2.5,74,0.00,,,0.21,WUHU21623XXSP,2013-07-05 20:03:00,
2013-07-05 16:08:00,88.9,78.7,29.70,SE,135,0.0,0.0,72,0.00,,,0.21,WUHU21623XXSP,2013-07-05 20:08:00,
2013-07-05 16:13:00,88.0,77.0,29.70,SW,225,0.0,3.6,70,0.00,,,0.21,WUHU21623XXSP,2013-07-05 20:13:00,
2013-07-05 16:18:00,87.1,76.6,29.70,South,180,0.0,3.6,71,0.00,,,0.21,WUHU21623XXSP,2013-07-05 20:18:00,
2013-07-05 16:23:00,86.5,76.1,29.69,SSE,157,0.0,1.8,71,0.00,,,0.21,WUHU21623XXSP,2013-07-05 20:23:00,
2013-07-05 16:28:00,85.8,76.2,29.69,SSE,157,0.0,0.0,73,0.00,,,0.21,WUHU21623XXSP,2013-07-05 20:28:00,
2013-07-05 16:33:00,85.3,75.7,29.70,SSE,157,0.0,0.0,73,0.00,,,0.21,WUHU21623XXSP,2013-07-05 20:33:00,
2013-07-05 16:38:00,84.7,75.5,29.70,SSE,157,0.0,0.0,74,0.00,,,0.21,WUHU21623XXSP,2013-07-05 20:38:00,
2013-07-05 16:43:00,84.2,75.0,29.70,SSE,157,0.0,0.0,74,0.00,,,0.21,WUHU21623XXSP,2013-07-05 20:43:00,
2013-07-05 16:48:00,83.8,75.0,29.70,SSE,157,0.0,0.0,75,0.00,,,0.21,WUHU21623XXSP,2013-07-05 20:48:00,
2013-07-05 16:53:00,83.5,74.7,29.70,South,180,0.0,0.0,75,0.00,,,0.21,WUHU21623XXSP,2013-07-05 20:53:00,
2013-07-05 16:58:00,83.5,75.1,29.70,SSE,157,0.0,0.0,76,0.00,,,0.21,WUHU21623XXSP,2013-07-05 20:58:00,
2013-07-05 17:03:00,83.8,75.4,29.69,SSE,157,0.0,0.0,76,0.00,,,0.21,WUHU21623XXSP,2013-07-05 21:03:00,
2013-07-05 17:08:00,84.0,75.6,29.69,SSE,157,0.0,0.0,76,0.00,,,0.21,WUHU21623XXSP,2013-07-05 21:08:00,
2013-07-05 17:13:00,84.4,75.2,29.69,South,180,0.0,0.0,74,0.00,,,0.21,WUHU21623XXSP,2013-07-05 21:13:00,
2013-07-05 17:18:00,84.6,75.3,29.69,SE,135,0.0,0.0,74,0.00,,,0.21,WUHU21623XXSP,2013-07-05 21:18:00,
2013-07-05 17:23:00,84.7,75.1,29.69,SSE,157,0.0,0.0,73,0.00,,,0.21,WUHU21623XXSP,2013-07-05 21:23:00,
2013-07-05 17:28:00,84.7,75.1,29.69,SSE,157,0.0,0.0,73,0.00,,,0.21,WUHU21623XXSP,2013-07-05 21:28:00,
2013-07-05 17:33:00,85.1,75.5,29.68,SSE,157,0.0,0.0,73,0.00,,,0.21,WUHU21623XXSP,2013-07-05 21:33:00,
2013-07-05 17:39:00,84.7,74.7,29.69,ESE,112,0.0,5.4,72,0.00,,,0.21,WUHU21623XXSP,2013-07-05 21:39:00,
2013-07-05 17:44:00,84.4,74.0,29.69,ESE,112,0.0,5.6,71,0.00,,,0.21,WUHU21623XXSP,2013-07-05 21:44:00,
2013-07-05 17:49:00,84.4,73.6,29.69,South,180,0.0,5.6,70,0.00,,,0.21,WUHU21623XXSP,2013-07-05 21:49:00,
2013-07-05 17:54:00,84.4,73.6,29.69,SE,135,0.0,0.0,70,0.00,,,0.21,WUHU21623XXSP,2013-07-05 21:54:00,
2013-07-05 17:59:00,84.0,72.8,29.69,SE,135,0.0,2.7,69,0.00,,,0.21,WUHU21623XXSP,2013-07-05 21:59:00,
2013-07-05 18:04:00,83.5,73.1,29.69,South,180,0.0,2.7,71,0.00,,,0.21,WUHU21623XXSP,2013-07-05 22:04:00,
2013-07-05 18:09:00,83.1,72.7,29.69,SSE,157,0.0,0.0,71,0.00,,,0.21,WUHU21623XXSP,2013-07-05 22:09:00,
2013-07-05 18:14:00,82.6,72.2,29.69,SE,135,0.0,0.0,71,0.00,,,0.21,WUHU21623XXSP,2013-07-05 22:14:00,
2013-07-05 18:19:00,82.2,72.2,29.69,ESE,112,0.0,1.8,72,0.00,,,0.21,WUHU21623XXSP,2013-07-05 22:19:00,
2013-07-05 18:24:00,82.0,72.5,29.70,SE,135,0.0,1.8,73,0.00,,,0.21,WUHU21623XXSP,2013-07-05 22:24:00,
2013-07-05 18:29:00,82.2,72.7,29.70,SW,225,0.0,1.6,73,0.00,,,0.21,WUHU21623XXSP,2013-07-05 22:29:00,
2013-07-05 18:34:00,82.2,72.7,29.70,WSW,247,0.0,3.4,72,0.00,,,0.21,WUHU21623XXSP,2013-07-05 22:34:00,
2013-07-05 18:39:00,83.8,73.4,29.70,SE,135,0.0,3.4,71,0.00,,,0.21,WUHU21623XXSP,2013-07-05 22:39:00,
2013-07-05 18:44:00,84.6,73.3,29.70,SSE,157,0.0,3.1,69,0.00,,,0.21,WUHU21623XXSP,2013-07-05 22:44:00,
2013-07-05 18:49:00,83.8,73.0,29.70,SSE,157,0.0,0.0,70,0.00,,,0.21,WUHU21623XXSP,2013-07-05 22:49:00,
2013-07-05 18:54:00,82.6,72.2,29.69,SSE,157,0.0,3.4,71,0.00,,,0.21,WUHU21623XXSP,2013-07-05 22:54:00,
2013-07-05 18:59:00,81.7,71.8,29.70,SSE,157,0.0,3.4,72,0.00,,,0.21,WUHU21623XXSP,2013-07-05 22:59:00,
2013-07-05 19:04:00,81.3,72.2,29.70,SW,225,4.0,4.0,74,0.00,,,0.21,WUHU21623XXSP,2013-07-05 23:04:00,
2013-07-05 19:09:00,81.1,72.1,29.70,South,180,0.0,4.0,74,0.00,,,0.21,WUHU21623XXSP,2013-07-05 23:09:00,
2013-07-05 19:14:00,80.8,72.1,29.70,ESE,112,0.0,0.0,75,0.00,,,0.21,WUHU21623XXSP,2013-07-05 23:14:00,
2013-07-05 19:19:00,80.2,72.0,29.70,SSE,157,0.0,0.0,76,0.00,,,0.21,WUHU21623XXSP,2013-07-05 23:19:00,
2013-07-05 19:24:00,79.5,71.7,29.70,SSE,157,0.0,4.7,77,0.00,,,0.21,WUHU21623XXSP,2013-07-05 23:24:00,
2013-07-05 19:29:00,79.3,71.9,29.70,ENE,67,0.0,4.7,78,0.00,,,0.21,WUHU21623XXSP,2013-07-05 23:29:00,
2013-07-05 19:34:00,79.0,71.9,29.70,WSW,247,0.0,4.0,79,0.00,,,0.21,WUHU21623XXSP,2013-07-05 23:34:00,
2013-07-05 19:39:00,78.6,71.6,29.70,SE,135,0.0,0.9,79,0.00,,,0.21,WUHU21623XXSP,2013-07-05 23:39:00,
2013-07-05 19:44:00,78.1,71.4,29.70,SE,135,0.0,0.0,80,0.00,,,0.21,WUHU21623XXSP,2013-07-05 23:44:00,
2013-07-05 19:50:00,77.9,71.6,29.70,SE,135,0.0,0.0,81,0.00,,,0.21,WUHU21623XXSP,2013-07-05 23:50:00,
2013-07-05 19:55:00,77.5,71.6,29.70,SE,135,0.0,0.0,82,0.00,,,0.21,WUHU21623XXSP,2013-07-05 23:55:00,
2013-07-05 20:00:00,77.4,71.4,29.70,SSE,157,0.0,1.8,82,0.00,,,0.21,WUHU21623XXSP,2013-07-06 00:00:00,
2013-07-05 20:05:00,77.2,71.6,29.70,SSE,157,0.0,1.8,83,0.00,,,0.21,WUHU21623XXSP,2013-07-06 00:05:00,
2013-07-05 20:10:00,76.8,71.2,29.70,East,90,0.0,0.0,83,0.00,,,0.21,WUHU21623XXSP,2013-07-06 00:10:00,
2013-07-05 20:15:00,76.8,71.6,29.70,ESE,112,0.0,0.0,84,0.00,,,0.21,WUHU21623XXSP,2013-07-06 00:15:00,
2013-07-05 20:20:00,76.5,71.3,29.71,ESE,112,0.0,0.0,84,0.00,,,0.21,WUHU21623XXSP,2013-07-06 00:20:00,
2013-07-05 20:25:00,76.1,71.3,29.71,SE,135,0.0,0.9,85,0.00,,,0.21,WUHU21623XXSP,2013-07-06 00:25:00,
2013-07-05 20:30:00,75.9,71.5,29.71,SSE,157,0.0,0.9,86,0.00,,,0.21,WUHU21623XXSP,2013-07-06 00:30:00,
2013-07-05 20:35:00,75.7,71.3,29.71,SSE,157,0.0,0.7,86,0.00,,,0.21,WUHU21623XXSP,2013-07-06 00:35:00,
2013-07-05 20:40:00,75.7,71.6,29.71,SSE,157,0.0,0.7,87,0.00,,,0.21,WUHU21623XXSP,2013-07-06 00:40:00,
2013-07-05 20:45:00,75.7,71.6,29.71,SSE,157,0.0,0.0,87,0.00,,,0.21,WUHU21623XXSP,2013-07-06 00:45:00,
2013-07-05 20:50:00,75.6,71.8,29.71,SSE,157,0.0,0.0,88,0.00,,,0.21,WUHU21623XXSP,2013-07-06 00:50:00,
2013-07-05 20:55:00,75.4,71.6,29.71,SE,135,0.0,0.0,88,0.00,,,0.21,WUHU21623XXSP,2013-07-06 00:55:00,
2013-07-05 21:00:00,75.0,71.6,29.70,SE,135,0.0,0.0,89,0.00,,,0.21,WUHU21623XXSP,2013-07-06 01:00:00,
2013-07-05 21:05:00,74.8,71.4,29.71,SSE,157,0.0,0.0,89,0.00,,,0.21,WUHU21623XXSP,2013-07-06 01:05:00,
2013-07-05 21:10:00,74.7,71.3,29.71,SSE,157,0.0,0.9,89,0.00,,,0.21,WUHU21623XXSP,2013-07-06 01:10:00,
2013-07-05 21:15:00,74.5,71.1,29.71,SE,135,0.0,0.9,89,0.00,,,0.21,WUHU21623XXSP,2013-07-06 01:15:00,
2013-07-05 21:20:00,74.5,71.4,29.72,SSE,157,0.0,0.0,90,0.00,,,0.21,WUHU21623XXSP,2013-07-06 01:20:00,
2013-07-05 21:25:00,74.1,71.1,29.72,SSE,157,0.0,0.0,90,0.00,,,0.21,WUHU21623XXSP,2013-07-06 01:25:00,
2013-07-05 21:30:00,74.1,71.1,29.72,SSE,157,0.0,0.0,90,0.00,,,0.21,WUHU21623XXSP,2013-07-06 01:30:00,
2013-07-05 21:35:00,74.1,71.1,29.72,SE,135,0.0,0.0,90,0.00,,,0.21,WUHU21623XXSP,2013-07-06 01:35:00,
2013-07-05 21:40:00,73.9,70.9,29.71,SE,135,0.0,4.0,90,0.00,,,0.21,WUHU21623XXSP,2013-07-06 01:40:00,
2013-07-05 21:45:00,73.8,70.7,29.72,SSE,157,0.0,4.0,90,0.00,,,0.21,WUHU21623XXSP,2013-07-06 01:45:00,
2013-07-05 21:50:00,73.6,70.5,29.72,SE,135,0.0,0.0,90,0.00,,,0.21,WUHU21623XXSP,2013-07-06 01:50:00,
2013-07-05 21:55:00,73.6,70.5,29.71,East,90,1.1,1.1,90,0.00,,,0.21,WUHU21623XXSP,2013-07-06 01:55:00,
2013-07-05 22:00:00,73.4,70.0,29.72,SSE,157,0.0,1.1,89,0.00,,,0.21,WUHU21623XXSP,2013-07-06 02:00:00,
2013-07-05 22:05:00,73.2,69.8,29.73,SE,135,0.0,2.9,89,0.00,,,0.21,WUHU21623XXSP,2013-07-06 02:05:00,
2013-07-05 22:10:00,73.2,69.8,29.73,East,90,0.0,2.9,89,0.00,,,0.21,WUHU21623XXSP,2013-07-06 02:10:00,
2013-07-05 22:15:00,73.2,69.8,29.73,SE,135,0.0,0.7,89,0.00,,,0.21,WUHU21623XXSP,2013-07-06 02:15:00,
2013-07-05 22:20:00,73.2,69.8,29.73,SSE,157,0.0,0.0,89,0.00,,,0.21,WUHU21623XXSP,2013-07-06 02:20:00,
2013-07-05 22:25:00,73.2,69.8,29.73,SSE,157,0.0,0.4,89,0.00,,,0.21,WUHU21623XXSP,2013-07-06 02:25:00,
2013-07-05 22:30:00,73.0,69.6,29.72,SE,135,0.0,0.4,89,0.00,,,0.21,WUHU21623XXSP,2013-07-06 02:30:00,
2013-07-05 22:35:00,72.9,69.5,29.72,SE,135,2.7,2.7,89,0.00,,,0.21,WUHU21623XXSP,2013-07-06 02:35:00,
2013-07-05 22:40:00,72.7,69.3,29.72,SE,135,0.0,2.7,89,0.00,,,0.21,WUHU21623XXSP,2013-07-06 02:40:00,
2013-07-05 22:45:00,72.5,69.1,29.73,SE,135,0.0,2.7,89,0.00,,,0.21,WUHU21623XXSP,2013-07-06 02:45:00,
2013-07-05 22:50:00,72.5,69.1,29.72,SE,135,0.0,0.0,89,0.00,,,0.21,WUHU21623XXSP,2013-07-06 02:50:00,
2013-07-05 22:55:00,72.3,68.9,29.73,SE,135,0.0,0.0,89,0.00,,,0.21,WUHU21623XXSP,2013-07-06 02:55:00,
2013-07-05 23:00:00,72.3,68.9,29.73,South,180,0.0,0.0,89,0.00,,,0.21,WUHU21623XXSP,2013-07-06 03:00:00,
2013-07-05 23:05:00,72.1,68.7,29.73,SE,135,0.0,0.0,89,0.00,,,0.21,WUHU21623XXSP,2013-07-06 03:05:00,
2013-07-05 23:10:00,72.1,68.4,29.73,SW,225,0.0,0.0,88,0.00,,,0.21,WUHU21623XXSP,2013-07-06 03:10:00,
2013-07-05 23:15:00,72.1,68.4,29.73,SW,225,0.0,0.0,88,0.00,,,0.21,WUHU21623XXSP,2013-07-06 03:15:00,
2013-07-05 23:20:00,72.0,68.2,29.73,SW,225,0.0,0.0,88,0.00,,,0.21,WUHU21623XXSP,2013-07-06 03:20:00,
2013-07-05 23:25:00,72.0,68.2,29.73,SSW,202,0.0,0.0,88,0.00,,,0.21,WUHU21623XXSP,2013-07-06 03:25:00,
2013-07-05 23:31:00,71.8,68.0,29.72,South,180,0.0,0.0,88,0.00,,,0.21,WUHU21623XXSP,2013-07-06 03:31:00,
2013-07-05 23:36:00,71.8,68.0,29.72,South,180,0.0,0.0,88,0.00,,,0.21,WUHU21623XXSP,2013-07-06 03:36:00,
2013-07-05 23:41:00,71.8,67.7,29.72,South,180,0.0,0.0,87,0.00,,,0.21,WUHU21623XXSP,2013-07-06 03:41:00,
2013-07-05 23:46:00,71.6,67.5,29.72,South,180,0.0,0.0,87,0.00,,,0.21,WUHU21623XXSP,2013-07-06 03:46:00,
2013-07-05 23:51:00,71.4,67.3,29.73,South,180,0.0,0.0,87,0.00,,,0.21,WUHU21623XXSP,2013-07-06 03:51:00,
2013-07-05 23:56:00,71.4,67.3,29.72,South,180,0.0,0.0,87,0.00,,,0.21,WUHU21623XXSP,2013-07-06 03:56:00,
2013-07-05 23:57:00,71.4,67.3,29.73,South,180,0.0,0.0,87,0.00,,,0.21,WUHU21623XXSP,2013-07-06 03:57:00,